Terug naar catalogus

ONEWEB-0231

ActiefCommunicatiePO
NORAD 48782·PAYLOAD·🇬🇧 United Kingdom

Gelanceerd May 28, 2021 vanaf Vostochny Cosmodrome

Loading…

Volgende Passages (komende 24 uur)

TLE

VersSource: CelesTrak SupGP

Epoch: Sep 14, 2026, 21:05 UTC

1 48782C 21045R   26257.87865000  .00003448  00000+0  91693-2 0  2572
2 48782  87.8987 241.3157 0002035  78.7150 316.6728 13.15545395    14

Volg ONEWEB-0231 in realtime met AllMySat

Download on the App Store